Regional Weather Roundup
Issued by NWS

Home | Current Version | Previous Version | Graphics & Text | Print | Product List | Glossary On
Versions: 1 2 3 4 5 6 7 8 9 10 11 12 13 14 15 16 17 18 19 20 21 22 23 24 25 26 27 28 29 30 31 32 33 34 35 36 37 38 39 40 41 42 43 44 45 46 47 48 49 50
000
ASUS45 KSLC 280910
RWRUT

UTAH REGIONAL WEATHER ROUNDUP
NATIONAL WEATHER SERVICE SALT LAKE CITY UT
200 AM MST SAT FEB 28 2015

UTZ001>011-023>025-281000-

NORTHERN UTAH

CITY           SKY/WX    TMP DP  RH WIND       PRES   REMARKS
BRIGHAM CITY   CLEAR     27  24  87 NW3       29.71S
HILL AFB       PTCLDY    31  18  60 E13       29.68S WCI  21
LOGAN          CLEAR     24  21  88 CALM      29.73R
OGDEN          CLEAR     28  20  71 S5        29.67F WCI  23
PROVO AIRPORT  CLEAR     27  21  80 CALM      29.69S
SALT LAKE CITY PTCLDY    31  22  69 S8        29.68F WCI  23
VERNAL         CLOUDY    29  23  78 NW3       29.77S
WENDOVER       CLOUDY    37  25  60 N8        29.66S WCI  31
HEBER CITY     CLEAR     19  16  86 CALM      29.72R
WEST JORDAN    CLEAR     28  23  80 SW7       29.69F WCI  21

$$

UTZ012>022-026-027-281000-

SOUTHERN/CENTRAL UTAH

CITY           SKY/WX    TMP DP  RH WIND       PRES   REMARKS
BLANDING       CLOUDY    29  29  99 CALM      29.83F
BRYCE CANYON   FOG       23  20  88 NE3       29.67F VSB 1/2
CEDAR CITY     CLOUDY    35  26  69 S5        29.60S WCI  31
DELTA          CLOUDY    31  21  66 NE8       29.62F WCI  23
HANKSVILLE     CLOUDY    32  30  93 SE3       29.77S
MILFORD        CLOUDY    28  16  60 NW9       29.59F WCI  19
MOAB/CYNLANDS  CLEAR     28  22  78 E7        29.75S WCI  21
PRICE          CLOUDY    29  23  78 NE6       29.74R WCI  23
ST GEORGE      CLOUDY    43  36  75 E15       29.65S
KANAB            N/A     32  32 100 NE6       29.71F WCI  26

$$

REGIONAL REPORTS     COLORADO/ARIZONA

CITY           SKY/WX    TMP DP  RH WIND       PRES   REMARKS
CRAIG, CO      PTCLDY    19   9  65 MISG      29.78
GRAND JUNCTION CLEAR     26  22  84 E7        29.78R WCI  18
RIFLE          CLEAR     21  17  84 CALM      29.79S
MONTROSE       CLEAR     16  13  88 SE7       29.81R WCI   6
CORTEZ         CLOUDY    29  28  96 E3        29.77F FOG
PAGE, AZ       RAIN      39  35  86 E3        29.69F
GRAND CANYON   CLOUDY    34  30  85 S5        29.68F WCI  30
KINGMAN        CLEAR     49  34  56 S15       29.63S
FLAGSTAFF      CLOUDY    36  31  82 SW17G30   29.71S WCI  26

$$

REGIONAL REPORTS    NEVADA/IDAHO/WYOMING

CITY           SKY/WX    TMP DP  RH WIND       PRES   REMARKS
LAS VEGAS, NV  PTCLDY    56  36  47 SW18G26   29.51S
ELY            LGT SNOW  29  29 100 CALM      29.60F VSB 1
ELKO           FLURRIES  32  31  96 CALM      29.60S
POCATELLO, ID  CLEAR     21  19  92 NE9       29.74S WCI  11
EVANSTON, WY   CLEAR     18   9  68 S8        29.69R WCI   8
ROCK SPRINGS   PTCLDY    12   7  80 NE18      29.77R WCI  -6

$$


USA.gov is the U.S. government's official web portal to all federal, state and local government web resources and services.